STARLINK-3355, 50808

Orbit data source: Space-Track

STARLINK-3355, 50808 is a payload satellite owned by SpaceX/Seattle (US) in LEO that was launched on Thu, 06 Jan 2022 UTC via an FALCON 9 launch vehicle from the Air Force Eastern Test Range (AFETR). Payload-class satellites include a variety of spacecraft equipped with specific instruments for various scientific and technological missions. These include communications satellites like Starlink; space stations such as the ISS; scientific satellites like the Hubble; Earth observation satellites from companies like Planet Labs, Umbra, and HawkEye 360; GPS; miniature CubeSats for education and research; and military/defense satellites.

Loading next visibility...
Identifier
50808, 2022-001F
Orbit
LEO
Country
Flag of USUS
Related business
Manufacturer
SpaceX/Seattle
Mission
Operational Commercial Communications
Bus & Motor
STARLINK, Unknown motor
Mass
297 kg wet, ~275 kg dry
Launch date (UTC)
2022-01-06 (4 years ago)
Launch vehicle
FALCON 9
Launch site
Air Force Eastern Test Range (AFETR)
Object type
Payload
Rocket body
Debris
Shape & HBR
Box + 1 Pan, 10.1 m
Radar Cross Section
13.562 m², Large (>1 m²)

Expand to show TLE details & history
Last TLE update: 2 days ago

TLE from 2 days ago
0 STARLINK-3355
1 50808U 22001F   26170.94887752 -.00000195  00000-0  58508-5 0  9999
2 50808  53.1605  59.9506 0001640  84.4023 275.7156 15.08839215245982
Epoch: 2026-06-19T22:46Z
TLE epoch observation values (Epoch: 2026-06-19T22:46:23.017Z)
Latitude
0.00001°
Longitude
170.18418°
Altitude
540.524 km
Speed
7.593 km/s
True Right ascension
03h 59m 48s
True Declination
0° 00' 00"
Sunlit
Object was in daylight at epoch
Visualization orbit readout
Latitude
Unknown
Longitude
Unknown
Altitude
Unknown
Speed
Unknown
Apparent Right ascension
Unknown
Apparent Declination
Unknown
Sunlit
N/A
Visualization observer readout
Local Sidereal Time
21:33:32
Azimuth
Unknown
Elevation
Unknown
Doppler factor
Unknown
Orbital elements
Apogee altitude
541.134 km
Perigee altitude
538.865 km
Semi-major axis
6,918.137 km
Eccentricity
0.00016
Inclination
53.1605°
RAAN
59.9506°
Arg. of periapsis
84.4023°
True anomaly
275.6969°
Mean anomaly
275.7156°
Eccentric anomaly
275.70625°
Mean motion
3.77189 °/min
Orbital period
95.44 mins
BSTAR
0.0000058508
Loading maneuver chart data...
Computing Atmospheric mass density...
Loading historical data...
Loading historical data...
Loading historical data...
Loading historical data...
Loading historical data...
Loading historical data...
Loading historical data...

Documentation

Showing up to 5 results
|